Terminal Aerodrome Forecast
Issued by NWS

Home | Current Version | Previous Version | Graphics & Text | Print | Product List | Glossary On
Versions: 1 2 3 4 5 6 7 8 9 10 11 12 13 14 15
000
FTUS45 KGGW 161720
TAFOLF
TAF
KOLF 161720Z 1618/1718 01009KT P6SM -RA BKN025 OVC045
     FM170000 02007KT P6SM VCSH OVC035
     FM170300 VRB03KT P6SM BKN045
     FM171600 17007KT P6SM SCT120=

USA.gov is the U.S. government's official web portal to all federal, state and local government web resources and services.